Total_Precipitation_Accumulation
0.28 0.25 0.24 0.24 0.23 0.20 0.16 0.12 0.08 0.06 0.03 0.02 0.01 0.01 0.00 0.00 0.00 0.00 0.00 0.00 0.00 0.01 0.02 0.03 0.04 0.05 0.07 0.09 0.11 0.13 0.13 0.11 0.08 0.08 0.07 0.07 0.06 0.05 0.06 0.08 0.09 0.10 0.12
0.34 0.30 0.26 0.24 0.24 0.23 0.20 0.14 0.10 0.09 0.07 0.05 0.03 0.02 0.01 0.01 0.00 0.00 0.00 0.00 0.00 0.00 0.01 0.02 0.04 0.07 0.09 0.12 0.13 0.15 0.16 0.12 0.10 0.09 0.07 0.06 0.05 0.04 0.04 0.06 0.07 0.09 0.11
0.39 0.37 0.32 0.28 0.25 0.24 0.24 0.22 0.19 0.17 0.12 0.08 0.05 0.04 0.03 0.02 0.01 0.00 0.00 0.00 0.00 0.00 0.00 0.01 0.03 0.07 0.10 0.13 0.18 0.21 0.22 0.18 0.13 0.10 0.09 0.08 0.07 0.05 0.04 0.04 0.04 0.05 0.07
0.47 0.45 0.39 0.30 0.26 0.28 0.28 0.24 0.21 0.19 0.15 0.11 0.07 0.06 0.04 0.03 0.02 0.01 0.00 0.00 0.00 0.00 0.00 0.00 0.02 0.05 0.09 0.14 0.19 0.26 0.31 0.26 0.19 0.16 0.13 0.11 0.09 0.07 0.06 0.05 0.04 0.04 0.05
0.50 0.51 0.45 0.38 0.35 0.30 0.28 0.27 0.22 0.19 0.17 0.14 0.10 0.06 0.04 0.02 0.02 0.02 0.02 0.01 0.01 0.00 0.00 0.00 0.01 0.02 0.05 0.09 0.15 0.24 0.32 0.31 0.24 0.20 0.18 0.16 0.14 0.11 0.09 0.09 0.08 0.07 0.07
0.63 0.57 0.52 0.50 0.47 0.41 0.32 0.28 0.26 0.23 0.20 0.19 0.17 0.12 0.06 0.03 0.02 0.01 0.01 0.02 0.01 0.01 0.01 0.01 0.02 0.02 0.02 0.05 0.09 0.16 0.23 0.30 0.30 0.26 0.22 0.19 0.17 0.15 0.14 0.14 0.13 0.13 0.13
0.87 0.76 0.64 0.62 0.60 0.53 0.44 0.40 0.37 0.34 0.29 0.27 0.25 0.19 0.12 0.08 0.04 0.02 0.02 0.01 0.01 0.02 0.02 0.02 0.03 0.02 0.02 0.03 0.05 0.09 0.13 0.22 0.29 0.31 0.30 0.27 0.24 0.22 0.22 0.23 0.22 0.21 0.21
1.01 0.93 0.84 0.77 0.71 0.67 0.62 0.56 0.51 0.47 0.43 0.42 0.39 0.36 0.24 0.13 0.07 0.03 0.02 0.02 0.03 0.03 0.02 0.03 0.03 0.03 0.03 0.03 0.03 0.04 0.07 0.12 0.21 0.29 0.34 0.34 0.32 0.31 0.32 0.35 0.36 0.36 0.33
1.19 1.08 1.03 1.01 0.93 0.83 0.75 0.70 0.66 0.62 0.55 0.50 0.49 0.52 0.40 0.21 0.11 0.06 0.04 0.03 0.03 0.03 0.04 0.05 0.05 0.05 0.04 0.04 0.03 0.03 0.04 0.05 0.11 0.22 0.32 0.37 0.38 0.40 0.44 0.48 0.53 0.55 0.51
1.37 1.30 1.22 1.18 1.14 1.04 0.90 0.85 0.80 0.74 0.70 0.63 0.57 0.49 0.45 0.34 0.30 0.19 0.09 0.07 0.07 0.06 0.07 0.07 0.07 0.07 0.06 0.05 0.05 0.05 0.05 0.06 0.09 0.16 0.28 0.40 0.47 0.51 0.56 0.60 0.65 0.70 0.69
1.45 1.41 1.36 1.33 1.26 1.18 1.09 1.05 1.00 0.94 0.84 0.75 0.67 0.58 0.54 0.45 0.36 0.35 0.23 0.12 0.11 0.10 0.08 0.08 0.07 0.07 0.07 0.07 0.07 0.09 0.11 0.11 0.14 0.20 0.31 0.43 0.53 0.61 0.70 0.74 0.77 0.81 0.83
1.55 1.46 1.39 1.35 1.29 1.25 1.21 1.17 1.16 1.10 1.02 0.93 0.85 0.76 0.70 0.62 0.49 0.47 0.41 0.26 0.21 0.15 0.12 0.10 0.09 0.10 0.11 0.12 0.13 0.17 0.20 0.22 0.24 0.31 0.41 0.51 0.58 0.67 0.79 0.88 0.91 0.89 0.90
1.37 1.36 1.36 1.34 1.30 1.25 1.23 1.23 1.24 1.20 1.13 1.05 0.95 0.88 0.83 0.74 0.65 0.62 0.58 0.42 0.30 0.21 0.16 0.14 0.13 0.14 0.15 0.16 0.19 0.26 0.29 0.34 0.37 0.42 0.51 0.60 0.64 0.67 0.74 0.85 0.97 1.06 1.12
1.29 1.32 1.34 1.35 1.37 1.36 1.30 1.28 1.26 1.23 1.21 1.12 1.00 0.91 0.83 0.76 0.72 0.70 0.67 0.65 0.57 0.40 0.29 0.23 0.21 0.22 0.24 0.27 0.32 0.41 0.42 0.51 0.55 0.58 0.64 0.70 0.74 0.72 0.71 0.74 0.82 0.92 1.00
1.19 1.21 1.23 1.25 1.26 1.28 1.28 1.28 1.24 1.19 1.18 1.13 1.05 0.97 0.87 0.75 0.71 0.70 0.70 0.73 0.81 0.73 0.53 0.37 0.34 0.36 0.39 0.44 0.52 0.52 0.51 0.63 0.68 0.70 0.74 0.76 0.75 0.70 0.67 0.66 0.68 0.70 0.73
1.04 1.08 1.09 1.10 1.11 1.11 1.12 1.15 1.12 1.08 1.07 1.03 1.01 1.01 0.96 0.86 0.82 0.79 0.81 0.85 0.91 0.95 0.83 0.57 0.47 0.48 0.54 0.59 0.67 0.62 0.59 0.67 0.67 0.67 0.69 0.68 0.62 0.57 0.55 0.54 0.56 0.60 0.63
0.91 0.92 0.94 0.95 0.95 0.97 1.00 1.01 0.97 0.93 0.95 0.94 0.92 0.94 0.96 0.93 0.93 0.90 0.91 0.95 1.00 1.05 1.07 0.84 0.67 0.63 0.65 0.64 0.63 0.56 0.51 0.51 0.49 0.57 0.57 0.54 0.49 0.46 0.45 0.46 0.48 0.50 0.53
0.81 0.82 0.83 0.84 0.80 0.79 0.83 0.86 0.87 0.85 0.84 0.84 0.86 0.90 0.92 0.93 0.97 0.97 0.99 1.00 1.00 0.99 1.01 0.93 0.75 0.65 0.59 0.53 0.50 0.45 0.40 0.37 0.34 0.43 0.44 0.44 0.42 0.39 0.39 0.39 0.40 0.42 0.46
0.71 0.73 0.74 0.76 0.78 0.76 0.76 0.77 0.76 0.76 0.76 0.76 0.77 0.79 0.80 0.85 0.89 0.90 0.93 0.96 0.94 0.91 0.88 0.82 0.69 0.57 0.50 0.45 0.43 0.39 0.33 0.30 0.26 0.28 0.30 0.29 0.28 0.28 0.29 0.30 0.30 0.31 0.31
0.55 0.59 0.62 0.65 0.67 0.71 0.74 0.77 0.78 0.76 0.74 0.73 0.73 0.74 0.76 0.79 0.83 0.88 0.92 0.92 0.91 0.91 0.87 0.83 0.74 0.61 0.49 0.42 0.41 0.38 0.34 0.28 0.25 0.21 0.24 0.22 0.20 0.18 0.16 0.16 0.15 0.14 0.14
0.40 0.44 0.50 0.57 0.62 0.64 0.69 0.73 0.76 0.77 0.77 0.77 0.79 0.83 0.86 0.94 0.94 0.90 0.86 0.83 0.81 0.84 0.84 0.81 0.71 0.58 0.48 0.41 0.37 0.32 0.30 0.29 0.27 0.22 0.21 0.19 0.16 0.14 0.11 0.11 0.10 0.09 0.09
0.34 0.37 0.42 0.46 0.53 0.59 0.74 0.73 0.70 0.71 0.78 0.82 0.83 0.82 0.84 0.93 0.90 0.88 0.82 0.76 0.76 0.80 0.80 0.73 0.61 0.48 0.35 0.28 0.27 0.31 0.34 0.36 0.33 0.21 0.18 0.18 0.15 0.14 0.11 0.09 0.10 0.09 0.10
0.35 0.39 0.41 0.45 0.50 0.63 0.79 0.75 0.79 0.73 0.75 0.80 0.81 0.78 0.73 0.70 0.71 0.64 0.68 0.71 0.71 0.68 0.62 0.55 0.49 0.38 0.31 0.28 0.33 0.40 0.38 0.35 0.27 0.17 0.19 0.22 0.18 0.15 0.11 0.10 0.11 0.10 0.10
0.50 0.54 0.58 0.61 0.64 0.73 0.79 0.71 0.68 0.63 0.67 0.69 0.66 0.63 0.59 0.54 0.51 0.51 0.53 0.59 0.51 0.46 0.43 0.38 0.35 0.31 0.30 0.32 0.39 0.45 0.45 0.43 0.34 0.26 0.24 0.25 0.20 0.16 0.12 0.11 0.13 0.12 0.11
0.77 0.75 0.72 0.68 0.65 0.64 0.65 0.59 0.55 0.50 0.51 0.50 0.48 0.46 0.46 0.43 0.49 0.55 0.50 0.45 0.41 0.38 0.41 0.42 0.42 0.40 0.41 0.42 0.42 0.46 0.51 0.55 0.46 0.32 0.24 0.20 0.18 0.16 0.14 0.12 0.13 0.14 0.12
0.70 0.68 0.66 0.63 0.57 0.50 0.45 0.40 0.38 0.35 0.35 0.32 0.31 0.32 0.37 0.38 0.46 0.51 0.44 0.40 0.37 0.32 0.33 0.35 0.36 0.35 0.33 0.35 0.41 0.39 0.44 0.59 0.52 0.36 0.19 0.19 0.20 0.24 0.31 0.17 0.13 0.13 0.12